Content
SEND FEEDBACK

Daily
Averages
Monthly
Summary
United States of America

ASHEVILLE, NORTH CAROLINA


Home > North America > United States > North Carolina
Elevation: 2240 feet     Latitude: 35 36N     Longitude: 082 32W

WEATHER
 
SELECT A DAY
Number of Records: 226,257;   Date Range: 1/1/95 - 8/28/14
 
SHARE

PRINT THIS DATA

[ ← Previous Day ]
WEATHER ALMANAC - FEBRUARY 10, 2013
[ Next Day → ]
[ °C ]   °F
Weather ElementAverageHighLow
Temperature41.5 °F50 °F (2:54 pm)33.1 °F (1:54 am)
Dewpoint29.9 °F43 °F (11:54 pm)19.9 °F (10:54 am)
Humidity67.3 %100 % (11:54 pm)34 % (1:54 pm)
Barometer30.28 in30.38 in (9:54 am)30.13 in (11:54 pm)
Wind Speed6.1 mph13.8 mph (1:54 pm)
Wind Gust21.9 mph (1:54 pm)
Weather ElementAverage
Visibility8.7 mi
Wind DirectionESE (128.1 °)

Weather ElementTotal
Precipitation0.61 in
Heating Degree Days23.5 (Base 65)
Averaged from 26 records on February 10, 2013
WEATHER CONDITIONS BREAKOUT
WIND DIRECTION BREAKOUT
WEATHER BY HOUR - FEBRUARY 10, 2013
[ °C ]   °F
Local TimeTemperatureDewpointHumidityBarometerVisibilityWind DirectionWind SpeedGust SpeedPrecipitationEventsConditions
1:54 AM33.1 °F26.1 °F75 %30.32 in10.0 miSSE (160°)3.5 mphClear
2:54 AM34.0 °F26.1 °F73 %30.32 in10.0 miCalmClear
3:54 AM34.0 °F27.0 °F75 %30.31 in10.0 miSSE (160°)3.5 mphClear
4:54 AM36.0 °F27.0 °F70 %30.31 in10.0 miCalmClear
5:54 AM37.9 °F25.0 °F60 %30.33 in10.0 miSE (130°)4.6 mphMostly Cloudy
6:54 AM36.0 °F25.0 °F64 %30.36 in10.0 miSouth (170°)3.5 mphPartly Cloudy
7:54 AM37.0 °F24.1 °F59 %30.37 in10.0 miSSE (160°)3.5 mphClear
8:54 AM39.9 °F23.0 °F51 %30.37 in10.0 miSouth (170°)6.9 mphClear
9:54 AM42.1 °F21.0 °F43 %30.38 in10.0 miSSE (150°)8.1 mphClear
10:54 AM43.0 °F19.9 °F40 %30.38 in10.0 miSSE (160°)9.2 mphMostly Cloudy
11:54 AM46.0 °F23.0 °F40 %30.35 in10.0 miSSE (150°)12.7 mphMostly Cloudy
12:54 PM46.9 °F23.0 °F39 %30.31 in10.0 miSSE (150°)12.7 mph17.3 mphClear
1:54 PM48.0 °F21.0 °F34 %30.24 in10.0 miSSE (150°)13.8 mph21.9 mphClear
2:54 PM50.0 °F25.0 °F38 %30.25 in10.0 miSSE (150°)9.2 mph17.3 mphClear
3:54 PM48.9 °F26.1 °F41 %30.22 in10.0 miSSE (150°)10.4 mph16.1 mphScattered Clouds
4:54 PM48.0 °F26.1 °F42 %30.22 in10.0 miSE (130°)4.6 mphOvercast
5:54 PM44.1 °F32.0 °F63 %30.23 in7.0 miSE (140°)4.6 mph0.01 inRainLight Rain
6:32 PM42.8 °F37.4 °F81 %30.22 in6.0 miCalm0.06 inRainRain
6:54 PM39.9 °F39.0 °F97 %30.24 in5.0 miCalm0.12 inRainRain
7:54 PM39.9 °F37.9 °F93 %30.25 in5.0 miSSE (160°)4.6 mph0.12 inRainRain
8:36 PM41.0 °F39.2 °F93 %30.26 in6.0 miSE (140°)3.5 mph0.05 inRainLight Rain
8:54 PM41.0 °F39.0 °F93 %30.28 in6.0 miESE (120°)4.6 mph0.07 inRainRain
9:54 PM41.0 °F39.9 °F96 %30.22 in7.0 miSE (140°)6.9 mph0.03 inRainLight Rain
10:41 PM42.8 °F41.0 °F93 %30.18 in6.0 miSSE (160°)10.4 mph0.07 inRainLight Rain
10:54 PM42.1 °F41.0 °F96 %30.17 in9.0 miSSE (160°)9.2 mph0.07 inRainLight Rain
11:54 PM43.0 °F43.0 °F100 %30.13 in9.0 miSouth (170°)9.2 mph0.01 inOvercast
Hourly data recorded from KAVL, located miles away from Asheville, North Carolina







STORIES FROM OUR PARTNERS